EW1940 Weather Reports


time (UTC)temp
C
wind
direction
speed
KPH
gust
KPH
rain 1hr
cm
rain 24hr
cm
rain mn
cm
humidity
%
barometer
mb
20260507100017 16 113 9.7 17.7 0.00 0.00 0.00 64 1016.3
20260507095017 16 135 8.0 22.5 0.00 0.00 0.00 62 1016.2
20260507094017 16 135 9.7 20.9 0.00 0.00 0.00 63 1016.3
20260507093017 16 135 9.7 19.3 0.00 0.00 0.00 64 1016.2
20260507092017 16 135 9.7 17.7 0.00 0.00 0.00 66 1016.2
20260507091018 15 135 9.7 19.3 0.00 0.00 0.00 66 1016.2
20260507090018 15 113 6.4 14.5 0.00 0.00 0.00 68 1016.2
20260507085017 15 135 8.0 14.5 0.00 0.00 0.00 68 1016.2
20260507084017 15 135 9.7 17.7 0.00 0.00 0.00 68 1016.2
20260507083017 15 135 9.7 16.1 0.00 0.00 0.00 70 1016.2
20260507082017 14 135 8.0 14.5 0.00 0.00 0.00 72 1016.2
20260507081017 14 135 6.4 17.7 0.00 0.00 0.00 73 1016.1
20260507080017 14 135 9.7 17.7 0.00 0.00 0.00 73 1016.1
20260507075018 14 135 6.4 14.5 0.00 0.00 0.00 73 1016.1
20260507074037 15 135 8.0 16.1 0.00 0.00 0.00 72 1016.0
20260507073017 14 113 4.8 9.7 0.00 0.00 0.00 74 1016.0
20260507072018 13 135 3.2 12.9 0.00 0.00 0.00 78 1016.0
20260507071017 12 113 4.8 11.3 0.00 0.00 0.00 81 1015.9
20260507070018 11 113 4.8 8.0 0.00 0.00 0.00 85 1015.8
20260507065017 10 113 4.8 11.3 0.00 0.00 0.00 89 1015.9
20260507064017 9 90 3.2 6.4 0.00 0.00 0.00 92 1015.8
20260507063018 8 90 3.2 6.4 0.00 0.00 0.00 93 1015.8
20260507062016 7 68 3.2 8.0 0.00 0.00 0.00 92 1015.7
20260507061017 7 90 1.6 3.2 0.00 0.00 0.00 92 1015.7
20260507060018 6 0.0 0.0 0.00 0.00 0.00 92 1015.6
20260507055041 6 45 1.6 3.2 0.00 0.00 0.00 91 1015.6
20260507054016 6 0.0 0.0 0.00 0.00 0.00 91 1015.5
20260507053018 6 0.0 0.0 0.00 0.00 0.00 91 1015.5
20260507052016 6 0.0 0.0 0.00 0.00 0.00 91 1015.5
20260507051016 6 0.0 0.0 0.00 0.00 0.00 90 1015.4
20260507050018 5 45 1.6 4.8 0.00 0.00 0.00 90 1015.3
20260507045018 6 23 1.6 4.8 0.00 0.00 0.00 90 1015.3
20260507044016 6 45 1.6 3.2 0.00 0.00 0.00 90 1015.3
20260507043036 6 23 3.2 6.4 0.00 0.00 0.00 89 1015.3
20260507042016 6 45 3.2 6.4 0.00 0.00 0.00 89 1015.2
20260507041016 6 45 3.2 4.8 0.00 0.00 0.00 89 1015.2
20260507040016 6 45 3.2 6.4 0.00 0.00 0.00 89 1015.1
20260507035016 6 45 3.2 4.8 0.00 0.00 0.00 89 1015.2
20260507034036 6 45 3.2 4.8 0.00 0.00 0.00 89 1015.2
20260507033016 6 23 3.2 6.4 0.00 0.00 0.00 88 1015.1
20260507032016 6 45 3.2 4.8 0.00 0.00 0.00 88 1015.1
20260507031016 6 45 1.6 4.8 0.00 0.00 0.00 88 1015.1
20260507030038 6 23 1.6 4.8 0.00 0.00 0.00 88 1015.1
20260507025016 6 45 3.2 4.8 0.00 0.00 0.00 88 1015.0
20260507024016 7 45 3.2 6.4 0.00 0.00 0.00 88 1015.0
20260507023018 7 23 1.6 4.8 0.00 0.00 0.00 88 1014.9
20260507022016 7 0.0 3.2 0.00 0.00 0.00 88 1014.9
20260507021038 7 23 1.6 4.8 0.00 0.00 0.00 88 1014.9
20260507020016 7 0.0 0.0 0.00 0.00 0.00 87 1014.8
20260507015016 7 0.0 0.0 0.00 0.00 0.00 87 1014.7
20260507014036 7 0.0 0.0 0.00 0.00 0.00 86 1014.8
20260507013016 7 0.0 0.0 0.00 0.00 0.00 86 1014.8
20260507012018 7 0.0 0.0 0.00 0.00 0.00 86 1014.8
20260507010018 7 0.0 0.0 0.00 0.00 0.00 86 1014.8
20260507005021 7 0.0 0.0 0.00 0.00 0.00 85 1014.9
20260507004016 7 0.0 0.0 0.00 0.00 0.00 84 1014.8
20260507003016 8 0.0 0.0 0.00 0.00 0.00 83 1014.8
20260507002057 8 0.0 0.0 0.00 0.00 0.00 83 1014.8
20260507001017 8 0.0 0.0 0.00 0.00 0.00 82 1014.9
20260507000018 8 0.0 0.0 0.00 0.00 0.00 80 1015.0
20260506235016 8 0.0 0.0 0.00 0.00 0.00 79 1014.9
20260506234017 9 0.0 0.0 0.00 0.00 0.00 79 1014.9
20260506233017 9 0.0 0.0 0.00 0.00 0.00 77 1014.8
20260506232016 10 0.0 0.0 0.00 0.00 0.00 76 1014.7
20260506231017 10 0.0 0.0 0.00 0.00 0.00 75 1014.7
20260506230016 10 0.0 0.0 0.00 0.00 0.00 75 1014.6
20260506225016 11 0.0 0.0 0.00 0.00 0.00 74 1014.5
20260506224017 11 0.0 0.0 0.00 0.00 0.00 74 1014.6
20260506223018 11 0.0 0.0 0.00 0.00 0.00 73 1014.7
20260506222037 11 0.0 0.0 0.00 0.00 0.00 73 1014.6
20260506221016 11 0.0 0.0 0.00 0.00 0.00 72 1014.5
20260506220016 11 0.0 0.0 0.00 0.00 0.00 72 1014.5
20260506215017 11 0.0 0.0 0.00 0.00 0.00 72 1014.5
20260506214017 12 0.0 4.8 0.00 0.00 0.00 72 1014.5
20260506213015 12 23 1.6 4.8 0.00 0.00 0.00 71 1014.5
20260506212100 12 0.0 3.2 0.00 0.00 0.00 71 1014.4
20260506211017 12 0.0 1.6 0.00 0.00 0.00 71 1014.3
20260506210016 12 0.0 0.0 0.00 0.00 0.00 70 1014.3
20260506205016 12 0.0 0.0 0.00 0.00 0.00 70 1014.1
20260506204015 12 0.0 0.0 0.00 0.00 0.00 69 1014.1
20260506203017 12 0.0 0.0 0.00 0.00 0.00 68 1014.1
20260506202016 12 0.0 0.0 0.00 0.00 0.00 66 1014.0
20260506201015 12 0.0 3.2 0.00 0.00 0.00 66 1013.9
20260506200036 13 0.0 3.2 0.00 0.00 0.00 66 1013.9
20260506195016 13 45 1.6 4.8 0.00 0.00 0.00 65 1013.8
20260506194019 13 45 1.6 4.8 0.00 0.00 0.00 64 1013.6
20260506193015 13 45 1.6 4.8 0.00 0.00 0.00 63 1013.4
20260506192016 13 45 1.6 4.8 0.00 0.00 0.00 63 1013.5
20260506191036 13 45 3.2 6.4 0.00 0.00 0.00 62 1013.4
20260506190037 13 45 3.2 11.3 0.00 0.00 0.00 62 1013.3
20260506185015 14 23 4.8 11.3 0.00 0.00 0.00 62 1013.2
20260506184015 14 23 4.8 11.3 0.00 0.00 0.00 61 1013.1
20260506183015 14 45 4.8 9.7 0.00 0.00 0.00 59 1013.1
20260506182019 14 0 4.8 11.3 0.00 0.00 0.00 56 1013.0
20260506181017 15 23 6.4 16.1 0.00 0.00 0.00 54 1013.0
20260506180019 15 45 8.0 16.1 0.00 0.00 0.00 54 1012.8
20260506175019 15 23 3.2 14.5 0.00 0.00 0.00 55 1012.7
20260506174019 15 0 4.8 12.9 0.00 0.00 0.00 54 1012.6
20260506173037 15 23 8.0 14.5 0.00 0.00 0.00 53 1012.6
20260506172039 15 45 6.4 12.9 0.00 0.00 0.00 53 1012.6
20260506171017 15 23 3.2 6.4 0.00 0.00 0.00 54 1012.5
20260506170019 16 45 8.0 14.5 0.00 0.00 0.00 52 1012.5
20260506165019 16 23 6.4 12.9 0.00 0.00 0.00 52 1012.5
20260506164019 16 45 6.4 16.1 0.00 0.00 0.00 50 1012.4
20260506163017 16 23 3.2 11.3 0.00 0.00 0.00 50 1012.4
20260506162019 16 23 8.0 17.7 0.00 0.00 0.00 51 1012.4
20260506161017 16 0 4.8 11.3 0.00 0.00 0.00 49 1012.4
20260506160019 16 0 3.2 8.0 0.00 0.00 0.00 50 1012.4
20260506155017 16 0 4.8 11.3 0.00 0.00 0.00 48 1012.5
20260506154019 16 315 3.2 8.0 0.00 0.00 0.00 49 1012.5
20260506153037 16 338 4.8 14.5 0.00 0.00 0.00 47 1012.5
20260506152017 16 0 3.2 11.3 0.00 0.00 0.00 48 1012.5
20260506151017 16 0 4.8 12.9 0.00 0.00 0.00 46 1012.5
20260506150019 16 338 3.2 12.9 0.00 0.00 0.00 48 1012.5
20260506145017 16 68 3.2 12.9 0.00 0.00 0.00 47 1012.5
20260506144037 16 0 6.4 12.9 0.00 0.00 0.00 47 1012.6
20260506143017 16 23 4.8 12.9 0.00 0.00 0.00 46 1012.5
20260506142017 17 23 6.4 14.5 0.00 0.00 0.00 48 1012.6
20260506141019 16 45 8.0 17.7 0.00 0.00 0.00 48 1012.6
20260506140017 17 338 4.8 11.3 0.00 0.00 0.00 47 1012.5
20260506135017 17 23 4.8 11.3 0.00 0.00 0.00 44 1012.6
20260506134017 18 338 4.8 11.3 0.00 0.00 0.00 45 1012.5
20260506133019 17 338 8.0 16.1 0.00 0.00 0.00 43 1012.6
20260506132018 18 45 6.4 14.5 0.00 0.00 0.00 46 1012.6
20260506131018 18 23 6.4 16.1 0.00 0.00 0.00 45 1012.5
20260506130018 18 45 6.4 14.5 0.00 0.00 0.00 45 1012.6
20260506125037 18 338 4.8 9.7 0.00 0.00 0.00 45 1012.6
20260506124017 17 45 6.4 17.7 0.00 0.00 0.00 46 1012.6
20260506123019 18 23 9.7 25.7 0.00 0.00 0.00 43 1012.6
20260506122018 18 45 9.7 17.7 0.00 0.00 0.00 41 1012.7
20260506121017 18 0 8.0 17.7 0.00 0.00 0.00 42 1012.7
20260506120017 18 45 8.0 16.1 0.00 0.00 0.00 44 1012.7
20260506115018 18 0 6.4 14.5 0.00 0.00 0.00 45 1012.9
20260506114017 17 0 4.8 16.1 0.00 0.00 0.00 47 1012.9
20260506113038 18 338 8.0 16.1 0.00 0.00 0.00 47 1012.8
20260506112017 18 23 6.4 20.9 0.00 0.00 0.00 42 1012.8
20260506111017 18 0 8.0 20.9 0.00 0.00 0.00 42 1012.9
20260506110018 18 0 6.4 17.7 0.00 0.00 0.00 45 1012.9
20260506105017 17 23 4.8 11.3 0.00 0.00 0.00 48 1012.9
20260506104018 17 45 4.8 14.5 0.00 0.00 0.00 47 1013.0
20260506103018 17 45 8.0 16.1 0.00 0.00 0.00 48 1013.0
20260506102018 17 45 8.0 16.1 0.00 0.00 0.00 46 1013.0
20260506101038 17 0 8.0 16.1 0.00 0.00 0.00 47 1013.0